Weather History for Omaha, NE

Change the Weather History Date:

Wednesday, June 4, 2014

  Actual Average Record
Temperature  
Mean Temperature 72 °F 69 °F  
Max Temperature 80 °F 80 °F 97 °F (1958)
Min Temperature 64 °F 57 °F 39 °F (1945)
Degree Days  
Heating Degree Days 0 1  
Month to date heating degree days 0 6  
Since 1 June heating degree days 0 6  
Since 1 July heating degree days 6530 6156  
Cooling Degree Days 7 5  
Month to date cooling degree days 35 18  
Year to date cooling degree days 178 100  
Since 1 June cooling degree days 35 18  
Growing Degree Days 22 (Base 50)    
Moisture  
Dew Point 62 °F    
Average Humidity 72    
Maximum Humidity 93    
Minimum Humidity 51    
Precipitation  
Precipitation T in 0.16 in 2.41 in (1893)
Month to date precipitation 6.48 0.65  
Year to date precipitation 13.30 11.93  
Snow  
Snow 0.00 in 0.00 in - ()
Month to date snowfall 0.0 0.0  
Since 1 July snowfall 17.8 26.4  
Snow Depth 0.00 in    
Sea Level Pressure  
Sea Level Pressure 29.81 in    
Wind  
Wind Speed 7 mph (NNE)    
Max Wind Speed 16 mph    
Max Gust Speed 20 mph    
Visibility 10 miles    
Events Rain , Thunderstorm    
T = Trace of Precipitation, MM = Missing Value Source: NWS Daily Summary

Daily Weather History Graph

Daily Weather History Graph

Search for Another Location

Airport:

Trip Planner

Search our weather history database for the weather conditions in past years. The results will help you decide how hot, cold, wet, or windy it might be!

Date:

Astronomy

Jun. 04, 2014 Rise Set
Actual Time 5:51 AM CDT 8:52 PM CDT
Civil Twilight 5:18 AM CDT 9:26 PM CDT
Nautical Twilight 4:35 AM CDT 10:08 PM CDT
Astronomical Twilight 3:46 AM CDT 10:58 PM CDT
Moon 12:14 PM CDT (6/4) 12:49 AM CDT (6/4)
Length of Visible Light 16h 07m
Length of Day
15h 01m
Waxing Crescent, 39% of the Moon is Illuminated
Jun 4
Waxing Crescent
Jun 5
First Quarter
Jun 12
Full
Jun 19
Last Quarter
Jun 27
New

Hourly Weather History & Observations

Time (CDT) Temp. Heat Index Dew Point Humidity Pressure Visibility Wind Dir Wind Speed Gust Speed Precip Events Conditions
12:52 AM 66.2 °F - 62.6 °F 88% 29.77 in 10.0 mi ESE 8.1 mph - N/A Rain , Thunderstorm Light Thunderstorms and Rain
1:38 AM 64.9 °F - 62.1 °F 90% 29.73 in 10.0 mi SW 8.1 mph 15.0 mph 0.01 in Rain , Thunderstorm Light Thunderstorms and Rain
1:52 AM 64.4 °F - 62.6 °F 94% 29.76 in 10.0 mi SW 5.8 mph 15.0 mph N/A Rain , Thunderstorm Light Thunderstorms and Rain
2:02 AM 66.0 °F - 62.1 °F 87% 29.72 in 10.0 mi Variable 5.8 mph - 0.00 in   Overcast
2:52 AM 66.0 °F - 62.1 °F 87% 29.69 in 10.0 mi Variable 5.8 mph - 0.00 in   Overcast
3:52 AM 64.9 °F - 62.1 °F 90% 29.70 in 10.0 mi Variable 3.5 mph - N/A   Overcast
4:52 AM 64.0 °F - 61.0 °F 90% 29.74 in 10.0 mi South 4.6 mph - N/A   Overcast
5:52 AM 64.0 °F - 61.0 °F 90% 29.80 in 10.0 mi NNW 8.1 mph - N/A   Overcast
6:52 AM 64.9 °F - 61.0 °F 87% 29.83 in 10.0 mi NW 3.5 mph - N/A   Overcast
7:52 AM 64.9 °F - 61.0 °F 87% 29.84 in 5.0 mi NW 3.5 mph - 0.00 in   Light Drizzle
8:52 AM 66.0 °F - 62.1 °F 87% 29.84 in 5.0 mi NW 3.5 mph - 0.00 in   Overcast
9:19 AM 66.9 °F - 63.0 °F 87% 29.85 in 10.0 mi NW 3.5 mph - N/A   Mostly Cloudy
9:52 AM 68.0 °F - 62.6 °F 83% 29.85 in 10.0 mi North 5.8 mph - N/A   Mostly Cloudy
10:52 AM 72.0 °F - 64.0 °F 76% 29.83 in 10.0 mi North 8.1 mph - N/A   Mostly Cloudy
11:52 AM 73.9 °F - 64.0 °F 71% 29.83 in 10.0 mi NNE 10.4 mph - N/A   Mostly Cloudy
12:19 PM 73.9 °F - 64.0 °F 71% 29.85 in 10.0 mi North 12.7 mph - N/A   Mostly Cloudy
12:52 PM 75.9 °F - 64.9 °F 69% 29.84 in 10.0 mi North 15.0 mph - N/A   Mostly Cloudy
1:39 PM 75.0 °F - 64.9 °F 71% 29.86 in 10.0 mi NNW 13.8 mph - N/A   Mostly Cloudy
1:52 PM 75.9 °F - 64.0 °F 67% 29.85 in 10.0 mi North 11.5 mph - N/A   Mostly Cloudy
2:52 PM 75.0 °F - 63.0 °F 66% 29.84 in 10.0 mi NNE 9.2 mph - N/A   Mostly Cloudy
3:52 PM 77.0 °F - 61.0 °F 58% 29.83 in 10.0 mi North 8.1 mph - N/A   Mostly Cloudy
4:52 PM 78.1 °F - 61.0 °F 56% 29.83 in 10.0 mi NNE 4.6 mph - N/A   Scattered Clouds
5:52 PM 80.1 °F 81.1 °F 61.0 °F 52% 29.82 in 10.0 mi NNE 9.2 mph - N/A   Scattered Clouds
6:52 PM 79.0 °F - 60.1 °F 52% 29.81 in 10.0 mi NE 6.9 mph - N/A   Partly Cloudy
7:52 PM 77.0 °F - 61.0 °F 58% 29.82 in 10.0 mi ENE 6.9 mph - N/A   Partly Cloudy
8:52 PM 75.0 °F - 63.0 °F 66% 29.82 in 10.0 mi ENE 3.5 mph - N/A   Partly Cloudy
9:52 PM 73.4 °F - 62.6 °F 69% 29.85 in 10.0 mi East 4.6 mph - N/A   Partly Cloudy
10:52 PM 71.1 °F - 63.0 °F 75% 29.86 in 10.0 mi East 6.9 mph - N/A   Partly Cloudy
11:52 PM 69.1 °F - 63.0 °F 81% 29.85 in 10.0 mi East 8.1 mph - N/A   Partly Cloudy